CHH147 ZJHK-ZHCC

Flight info

Callsign CHH147
Flight time N/A
Altitude 361
Route AGTEL W71 LH R339 BHY DCT LBN/K0913S1070 R343 EXURI/K0902S1130 R343 GOSMA W82 UPMAT W56 IGMIG IGM9U
Aircraft A346/M-SDE2E3GHIJ3J4J5LM1ORWXY/LB1D1

Departure

Time N/A
Airport Haikou Meilan International Airport (ZJHK)

Arrival

Time 2026-05-07 14:12
Airport Zhengzhou Xinzheng International Airport (ZHCC)
Time Latitude Longitude Altitude Speed Heading
2026-05-07 13:54 33.95706 114.07148 19397 ft 400 kts 338°
2026-05-07 13:55 33.98315 114.06031 19031 ft 398 kts 339°
2026-05-07 13:55 34.00915 114.04918 18687 ft 396 kts 339°
2026-05-07 13:55 34.03530 114.03801 18217 ft 393 kts 339°
2026-05-07 13:55 34.06099 114.02705 17717 ft 390 kts 339°
2026-05-07 13:56 34.08646 114.01617 17226 ft 388 kts 339°
2026-05-07 13:56 34.11182 114.00531 16739 ft 385 kts 339°
2026-05-07 13:56 34.13698 113.99452 16268 ft 383 kts 340°
2026-05-07 13:56 34.16117 113.98149 15761 ft 380 kts 327°
2026-05-07 13:57 34.18050 113.96011 15298 ft 378 kts 309°
2026-05-07 13:57 34.19325 113.93215 14850 ft 381 kts 291°
2026-05-07 13:57 34.19799 113.90062 14399 ft 384 kts 274°
2026-05-07 13:57 34.19449 113.86848 13962 ft 388 kts 260°
2026-05-07 13:58 34.18978 113.83653 13453 ft 383 kts 269°
2026-05-07 13:58 34.19163 113.80482 12940 ft 374 kts 286°
2026-05-07 13:58 34.20009 113.77532 12475 ft 369 kts 294°
2026-05-07 13:58 34.20945 113.74660 12062 ft 365 kts 295°
2026-05-07 13:59 34.21905 113.71807 11998 ft 367 kts 295°
2026-05-07 13:59 34.22877 113.68949 11993 ft 367 kts 295°
2026-05-07 13:59 34.23849 113.66094 11991 ft 367 kts 295°
2026-05-07 13:59 34.24829 113.63231 11990 ft 367 kts 295°
2026-05-07 14:00 34.25793 113.60413 11980 ft 354 kts 295°
2026-05-07 14:00 34.26716 113.57707 11787 ft 343 kts 295°
2026-05-07 14:00 34.27625 113.55039 11527 ft 334 kts 296°
2026-05-07 14:00 34.28501 113.52465 11278 ft 326 kts 296°
2026-05-07 14:01 34.29339 113.49998 11039 ft 318 kts 296°
2026-05-07 14:01 34.30182 113.47519 10786 ft 310 kts 296°
2026-05-07 14:01 34.30994 113.45132 10529 ft 303 kts 296°
2026-05-07 14:01 34.31792 113.42796 10226 ft 298 kts 296°
2026-05-07 14:02 34.32577 113.40507 9867 ft 289 kts 298°
2026-05-07 14:02 34.33671 113.38570 9442 ft 271 kts 324°
2026-05-07 14:02 34.35300 113.37600 9025 ft 258 kts 349°
2026-05-07 14:02 34.37067 113.37595 8620 ft 256 kts 13°
2026-05-07 14:03 34.38726 113.38319 8224 ft 257 kts 20°
2026-05-07 14:03 34.40405 113.39156 7806 ft 257 kts 19°
2026-05-07 14:03 34.42053 113.40003 7420 ft 258 kts 26°
2026-05-07 14:03 34.43401 113.41450 7016 ft 266 kts 55°
2026-05-07 14:04 34.44029 113.43566 6632 ft 273 kts 84°
2026-05-07 14:04 34.43793 113.45851 6228 ft 275 kts 102°
2026-05-07 14:04 34.43553 113.48115 5670 ft 268 kts 79°
2026-05-07 14:04 34.44143 113.50168 5174 ft 260 kts 57°
2026-05-07 14:05 34.45050 113.52011 4905 ft 248 kts 59°
2026-05-07 14:05 34.45812 113.53864 4506 ft 244 kts 65°
2026-05-07 14:05 34.46432 113.55763 4045 ft 241 kts 70°
2026-05-07 14:05 34.46972 113.57700 3585 ft 237 kts 72°
2026-05-07 14:06 34.47453 113.59572 3159 ft 234 kts 73°
2026-05-07 14:06 34.48047 113.61347 2987 ft 219 kts 51°
2026-05-07 14:06 34.49203 113.62354 3035 ft 196 kts 25°
2026-05-07 14:06 34.50424 113.62938 3006 ft 185 kts 23°
2026-05-07 14:07 34.51620 113.63499 3007 ft 184 kts 24°
2026-05-07 14:07 34.52809 113.64066 3006 ft 183 kts 24°
2026-05-07 14:07 34.53992 113.64641 3033 ft 183 kts 24°
2026-05-07 14:07 34.55175 113.65223 3028 ft 182 kts 24°
2026-05-07 14:08 34.56343 113.65800 3014 ft 181 kts 24°
2026-05-07 14:08 34.57511 113.66379 3014 ft 181 kts 25°
2026-05-07 14:08 34.58615 113.67084 2991 ft 178 kts 48°
2026-05-07 14:08 34.59101 113.68398 2869 ft 171 kts 88°
2026-05-07 14:09 34.58851 113.69825 2441 ft 171 kts 108°
2026-05-07 14:09 34.58381 113.71161 2293 ft 173 kts 112°
2026-05-07 14:09 34.57885 113.72500 2311 ft 174 kts 111°
2026-05-07 14:09 34.57429 113.73784 2259 ft 155 kts 110°
2026-05-07 14:10 34.57034 113.74937 2131 ft 145 kts 109°
2026-05-07 14:10 34.56653 113.76066 1922 ft 145 kts 108°
2026-05-07 14:10 34.56273 113.77200 1730 ft 145 kts 109°
2026-05-07 14:10 34.55889 113.78335 1528 ft 145 kts 108°
2026-05-07 14:11 34.55506 113.79472 1349 ft 145 kts 109°
2026-05-07 14:11 34.55121 113.80609 1145 ft 146 kts 110°
2026-05-07 14:11 34.54734 113.81750 943 ft 146 kts 110°
2026-05-07 14:11 34.54342 113.82910 689 ft 146 kts 110°
2026-05-07 14:12 34.53936 113.84107 531 ft 146 kts 111°
2026-05-07 14:12 34.53582 113.85164 509 ft 110 kts 113°
2026-05-07 14:12 34.53370 113.85774 506 ft 53 kts 114°
2026-05-07 14:12 34.53239 113.85976 507 ft 4 kts 139°
2026-05-07 14:13 34.53238 113.85976 507 ft 0 kts 139°
2026-05-07 14:14 34.53236 113.85979 507 ft 2 kts 139°
2026-05-07 14:14 34.53212 113.86005 508 ft 7 kts 139°
2026-05-07 14:14 34.53191 113.86025 509 ft 1 kts 146°
2026-05-07 14:14 34.53182 113.86029 509 ft 2 kts 163°
2026-05-07 14:15 34.53160 113.86032 510 ft 4 kts 187°
2026-05-07 14:15 34.53128 113.86012 512 ft 6 kts 223°
2026-05-07 14:15 34.53125 113.85953 512 ft 10 kts 292°
2026-05-07 14:15 34.53157 113.85856 512 ft 15 kts 291°
2026-05-07 14:16 34.53188 113.85762 512 ft 9 kts 291°
2026-05-07 14:16 34.53205 113.85709 512 ft 0 kts 291°
2026-05-07 14:17 34.53212 113.85686 512 ft 7 kts 291°
2026-05-07 14:18 34.53209 113.85624 513 ft 0 kts 238°
2026-05-07 14:18 34.53184 113.85605 513 ft 12 kts 207°
2026-05-07 14:18 34.53075 113.85547 513 ft 22 kts 203°
2026-05-07 14:18 34.52970 113.85494 513 ft 13 kts 202°
2026-05-07 14:19 34.52877 113.85449 513 ft 16 kts 202°
2026-05-07 14:19 34.52770 113.85396 513 ft 14 kts 202°
2026-05-07 14:19 34.52673 113.85348 513 ft 16 kts 203°
2026-05-07 14:19 34.52557 113.85288 513 ft 19 kts 202°
2026-05-07 14:20 34.52438 113.85228 513 ft 19 kts 202°
2026-05-07 14:20 34.52315 113.85167 513 ft 18 kts 202°
2026-05-07 14:20 34.52214 113.85117 513 ft 12 kts 202°
2026-05-07 14:20 34.52126 113.85073 513 ft 15 kts 202°
2026-05-07 14:21 34.52035 113.85029 513 ft 4 kts 202°
2026-05-07 14:21 34.51998 113.85010 513 ft 7 kts 202°
2026-05-07 14:21 34.51983 113.85003 513 ft 0 kts 202°
2026-05-07 14:22 34.51982 113.85002 513 ft 1 kts 202°
2026-05-07 14:22 34.51966 113.84994 513 ft 4 kts 202°
2026-05-07 14:22 34.51954 113.84988 513 ft 0 kts 202°
2026-05-07 14:23 34.51953 113.84988 513 ft 1 kts 202°
2026-05-07 14:23 34.51938 113.84977 513 ft 4 kts 218°
2026-05-07 14:23 34.51923 113.84937 513 ft 7 kts 266°
2026-05-07 14:24 34.51939 113.84865 513 ft 11 kts 290°
2026-05-07 14:24 34.51969 113.84766 513 ft 14 kts 290°
2026-05-07 14:24 34.52013 113.84645 513 ft 17 kts 298°
2026-05-07 14:24 34.52057 113.84532 513 ft 16 kts 295°
2026-05-07 14:25 34.52108 113.84398 513 ft 17 kts 288°
2026-05-07 14:25 34.52122 113.84342 513 ft 7 kts 287°
2026-05-07 14:25 34.52141 113.84270 513 ft 11 kts 287°
2026-05-07 14:25 34.52175 113.84177 513 ft 13 kts 297°
2026-05-07 14:26 34.52217 113.84063 513 ft 16 kts 290°
2026-05-07 14:26 34.52250 113.83959 513 ft 14 kts 292°
2026-05-07 14:26 34.52287 113.83850 513 ft 11 kts 292°
2026-05-07 14:26 34.52321 113.83750 513 ft 14 kts 292°
2026-05-07 14:27 34.52362 113.83631 513 ft 13 kts 292°
2026-05-07 14:27 34.52395 113.83533 513 ft 7 kts 292°
2026-05-07 14:27 34.52415 113.83474 513 ft 0 kts 294°
2026-05-07 14:27 34.52419 113.83465 513 ft 2 kts 295°
2026-05-07 14:28 34.52425 113.83455 513 ft 0 kts 315°
2026-05-07 14:28 34.52428 113.83452 513 ft 1 kts 323°
2026-05-07 14:28 34.52441 113.83447 513 ft 3 kts 354°
2026-05-07 14:28 34.52471 113.83454 513 ft 6 kts 21°
2026-05-07 14:29 34.52516 113.83477 513 ft 9 kts 22°
2026-05-07 14:29 34.52556 113.83530 513 ft 10 kts 95°
2026-05-07 14:29 34.52541 113.83629 513 ft 13 kts 106°
2026-05-07 14:29 34.52537 113.83742 513 ft 15 kts 61°
2026-05-07 14:30 34.52557 113.83792 513 ft 6 kts 75°
2026-05-07 14:30 34.52553 113.83857 513 ft 10 kts 107°
2026-05-07 14:30 34.52524 113.83945 513 ft 13 kts 111°
2026-05-07 14:30 34.52489 113.84052 513 ft 15 kts 112°
2026-05-07 14:31 34.52458 113.84141 513 ft 2 kts 112°
2026-05-07 14:31 34.52449 113.84169 513 ft 4 kts 105°
2026-05-07 14:31 34.52462 113.84208 513 ft 6 kts 38°
2026-05-07 14:31 34.52489 113.84221 513 ft 1 kts 22°
2026-05-07 14:32 34.52495 113.84224 513 ft 0 kts 22°